This is the latest recevied weather packets stored in our database for station/object W0SS-13. If no packets are shown the sender has not sent any weather packets the latest 10 day(s).
| Time | Temp. | Humidity | Pressure | Rain* | Wind** | Luminosity | Snow |
|---|---|---|---|---|---|---|---|
| 1777582203 | 17.78° C | 55% | 1017 hPa | 0 mm | - | 395 W/m² | - |
| 1777581902 | 17.78° C | 55% | 1017.2 hPa | 0 mm | - | 226 W/m² | - |
| 1777581596 | 17.78° C | 54% | 1017.3 hPa | 0 mm | - | 188 W/m² | - |
| 1777581290 | 17.78° C | 53% | 1017.3 hPa | 0 mm | - | 270 W/m² | - |
| 1777580986 | 17.78° C | 54% | 1017.6 hPa | 0 mm | - | 458 W/m² | - |
| 1777580680 | 18.33° C | 52% | 1017.5 hPa | 0 mm | - | 350 W/m² | - |
| 1777580376 | 17.78° C | 52% | 1017.7 hPa | 0 mm | - | 415 W/m² | - |
| 1777580073 | 17.78° C | 53% | 1017.5 hPa | 0 mm | - | 256 W/m² | - |
| 1777579769 | 17.78° C | 54% | 1017.6 hPa | 0 mm | - | 610 W/m² | - |
| 1777579467 | 17.78° C | 55% | 1017.7 hPa | 0 mm | - | 284 W/m² | - |
| 1777579162 | 17.78° C | 54% | 1017.8 hPa | 0 mm | - | 232 W/m² | - |
| 1777578857 | 17.78° C | 53% | 1017.5 hPa | 0 mm | - | 348 W/m² | - |
| 1777578553 | 17.78° C | 53% | 1017.7 hPa | 0 mm | - | 518 W/m² | - |
| 1777578248 | 17.78° C | 52% | 1017.7 hPa | 0 mm | - | 273 W/m² | - |
| 1777577944 | 17.78° C | 53% | 1017.9 hPa | 0 mm | - | 342 W/m² | - |
| 1777577639 | 17.78° C | 53% | 1017.8 hPa | 0 mm | - | 255 W/m² | - |
| 1777577337 | 17.78° C | 52% | 1017.9 hPa | 0 mm | - | 660 W/m² | - |
| 1777577032 | 18.33° C | 52% | 1017.6 hPa | 0 mm | - | 368 W/m² | - |
| 1777576730 | 18.33° C | 54% | 1017.7 hPa | 0 mm | - | 764 W/m² | - |
| 1777576429 | 17.22° C | 52% | 1017.8 hPa | 0 mm | - | 791 W/m² | - |
| 1777576126 | 17.22° C | 55% | 1017.9 hPa | 0 mm | - | 603 W/m² | - |
| 1777575821 | 17.78° C | 52% | 1017.8 hPa | 0 mm | - | 221 W/m² | - |
| 1777575518 | 17.78° C | 54% | 1017.8 hPa | 0 mm | - | 430 W/m² | - |
| 1777575214 | 17.22° C | 52% | 1017.8 hPa | 0 mm | - | 339 W/m² | - |
| 1777574910 | 17.22° C | 54% | 1017.9 hPa | 0 mm | - | 392 W/m² | - |
* Rain latest hour (hover to see other rain measurements)
** Current wind speed in m/s (hover to see current wind gust speed)